Flag for Germany Weather past 2 weeks in Mannheim, Baden-Württemberg, Germany

Now
63 °F

Partly sunny.


Feels Like: 63 °F
Forecast: 51 / 60 °F
Wind: 9 mph from North

Location: Baden Wurttemberg - Neuostheim

Current Time: May 25, 2015 at 6:22:54 PM

Latest Report: May 25, 2015 at 5:50 PM


Visibility: N/A

Pressure: 29.92 "Hg

Humidity: 59%

Dew point: 48 °F

Location of MannheimLocation

Historic Weather in Mannheim — Graph

°F

Mannheim temperature yesterday

Maximum temperature yesterday: 72 °F (at 3:20 PM)
Minimum temperature yesterday: 59 °F (at 7:50 AM)
Average temperature yesterday: 66 °F

Past Weeks' High & Low Weather Summary

 TemperatureHumidityPressure
High86 °F (May 12, 3:50 PM)100% (May 15, 5:50 AM)30.33 "Hg (May 15, 5:50 AM)
Low41 °F (May 22, 5:20 AM)25% (May 18, 6:20 PM)29.71 "Hg (May 18, 6:50 PM)
Average64 °F50%30.06 "Hg
* Reported May 10 4:20 PM — May 25 4:50 PM, Mannheim, Weather by CustomWeather, © 2015

Note: Actual official high and low records may vary slightly from our data, if they occured in-between our weather recording intervals... More about our weather records

Advertising

Mannheim weather history for previous 24 hours

 ConditionsComfort  
Time TempWeatherWind HumidityBarometerVisibility
4:50 PM
Mon, May 25
63 °FBroken clouds.10 mph59%29.92 "HgN/A
4:20 PM64 °FScattered showers. Partly sunny.13 mph52%29.92 "HgN/A
3:50 PM66 °FPartly sunny.8 mph49%29.92 "HgN/A
3:20 PM66 °FPartly sunny.6 mph52%29.92 "HgN/A
2:50 PM66 °FBroken clouds.3 mph60%29.92 "HgN/A
2:20 PM66 °FBroken clouds.3 mph64%29.92 "HgN/A
1:50 PM61 °FThundershowers. Broken clouds.8 mph83%29.92 "HgN/A
1:20 PM64 °FScattered showers. Broken clouds.7 mph73%29.92 "HgN/A
12:50 PM64 °FScattered showers. Partly sunny.6 mph68%29.95 "HgN/A
12:20 PM64 °FScattered showers. Broken clouds.3 mph64%29.95 "HgN/A
11:50 AM64 °FThundershowers. Partly sunny.8 mph73%29.95 "HgN/A
11:20 AM66 °FScattered showers. Partly sunny.3 mph60%29.95 "HgN/A
10:50 AM68 °FBroken clouds.2 mph56%29.95 "HgN/A
10:20 AM66 °FSunny.3 mph60%29.95 "Hg10 mi
9:50 AM64 °FSunny.3 mph64%29.98 "Hg10 mi
9:20 AM64 °FSunny.2 mph64%29.98 "Hg10 mi
8:50 AM64 °FSunny.2 mph68%29.98 "Hg10 mi
8:20 AM63 °FSunny.1 mph68%29.98 "Hg10 mi
7:50 AM61 °FSunny.3 mph72%29.98 "Hg10 mi
7:20 AM61 °FSunny.2 mph72%29.98 "Hg10 mi
11:20 PM
Sun, May 24
64 °FClear.3 mph60%30.04 "Hg10 mi
10:50 PM64 °FClear.3 mph60%30.04 "Hg10 mi
10:20 PM64 °FClear.2 mph60%30.04 "Hg10 mi
9:50 PM66 °FSunny.3 mph56%30.04 "Hg10 mi
9:20 PM66 °FSunny.3 mph56%30.04 "Hg10 mi
8:50 PM66 °FSunny.3 mph56%30.01 "Hg10 mi
8:20 PM68 °FPassing clouds.5 mph56%30.04 "HgN/A
7:50 PM68 °FSunny.6 mph53%30.04 "Hg10 mi
7:20 PM70 °FPassing clouds.7 mph46%30.04 "HgN/A
6:50 PM70 °FPassing clouds.6 mph46%30.04 "HgN/A
6:20 PM70 °FPassing clouds.5 mph43%30.04 "HgN/A
Weather by CustomWeather, © 2015

See weather overviewHow to use our weather pages